Weather in Dongaron

Russia / Republic of North Ossetia — Alania     43°06′22″N   44°43′14″E
temp.,
°C
wind,
m/s
gust,
m/s
humid.,
%
clouds,
%
prec.,
mm/h
press.,
hPa
HPBL,
m
7 march, sun
sun700:00+2s3354100 0.0 101543
03:00+1sse1258100 0.0 101744
06:00−4wnw2695100 4.7 1022483
09:00−3nnw2391100 5.8 1022418
12:00−3n2487100 1.3 1021556
15:00−1nne2272100 2.1 1020793
18:00−4ene237890 0.1 1022276
21:00−6se137963 0.1 1022155
8 march, mon
mon800:00−6sse11750 0.0 102268
03:00−6ssw117822 0.0 102152
06:00−6sw11762 0.0 102166
09:00−2nnw117125 0.0 1020428
12:000nne2361100 0.1 1017869
15:00+1nne216192 0.1 1016933
18:00−3nne1186100 0.3 1017257
21:00−3s1185100 0.7 1018138
9 march, tue
tue900:00−4ssw1180100 0.0 1018109
03:00−5wsw118498 0.1 101891
06:00−5ssw1289100 0.4 1019124
09:00−1nnw117792 0.6 1018439
12:00+1n117180 0.1 1017718
15:00+2nne116586 0.3 1016858
18:00−1ne117487 0.1 1018271
21:00−3s227893 0.3 102292
10 march, wed
wed1000:00−4s228296 0.6 102385
03:00−5s229398 2.3 1023117
06:00−5s2291100 0.8 1024100
09:00−1n117991 0.9 1022372
12:000nne348774 0.3 1020582
15:00−1nne359087 1.4 1019536
18:00−3ne2593100 1.1 1019401
21:00−4ene2591100 1.5 1019394
11 march, thu
thu1100:00−4ene1492100 0.1 1017312
03:00−4ene1195100 0.6 1016131
06:00−5ne2595100 1.8 1017385
09:00−5ne3590100 3.0 1019526
12:00−4ne4690100 1.2 1018663
15:00−5ne4790100 2.8 1019742
18:00−7ene3692100 1.1 1021548
21:00−9ene2492100 1.4 1024324